Home > Weather > Debrecen > Past weeks

Flag for Hungary Past Weather in Debrecen, Hungary — Yesterday and Last 2 Weeks

Now
72 °F

Sunny.


Feels Like: 75 °F
Forecast: 56 / 79 °F
Wind: 10 mph from North

Location: Debrecen Airport

Current Time: Aug 30, 2016 at 9:33:14 AM

Latest Report: Aug 30, 2016 at 8:45 AM


Visibility: 10 mi

Pressure: 30.07 "Hg

Humidity: 69%

Dew Point: 61 °F

Location of DebrecenLocation

Past Weather in Debrecen — Graph

°F

Debrecen Temperature Yesterday

Maximum temperature yesterday: 86 °F (at 2:15 PM)
Minimum temperature yesterday: 59 °F (at 5:15 AM)
Average temperature yesterday: 75 °F

High & Low Weather Summary for the Past Weeks

 TemperatureHumidityPressure
High86 °F (Aug 20, 3:15 PM)100% (Aug 18, 5:15 AM)30.24 "Hg (Aug 18, 5:15 AM)
Low50 °F (Aug 18, 5:15 AM)33% (Aug 28, 3:45 PM)29.86 "Hg (Aug 17, 9:45 AM)
Average71 °F63%30.07 "Hg
* Reported Aug 15 8:15 AM — Aug 30 8:15 AM, Debrecen, Weather by CustomWeather, © 2016

Note: Actual official high and low records may vary slightly from our data, if they occured in-between our weather recording intervals... More about our weather records

Advertising

Debrecen Weather History for the Previous 24 Hours

Scroll right to see more
 ConditionsComfort  
Time TempWeatherWind HumidityBarometerVisibility
8:15 AM
Tue, Aug 30
72 °FSunny.9 mph73%30.04 "Hg10 mi
7:45 AM70 °FSunny.9 mph73%30.04 "Hg10 mi
7:15 AM68 °FSunny.10 mph78%30.04 "Hg10 mi
6:45 AM68 °FClear.10 mph78%30.01 "Hg10 mi
6:15 AM68 °FClear.12 mph78%30.01 "Hg10 mi
5:45 AM66 °FClear.9 mph83%30.01 "Hg10 mi
5:15 AM66 °FClear.9 mph78%30.01 "Hg10 mi
4:45 AM66 °FClear.9 mph78%30.01 "Hg10 mi
12:15 AM66 °FClear.5 mph78%30.01 "Hg10 mi
11:45 PM
Mon, Aug 29
66 °FClear.No wind78%29.98 "Hg10 mi
10:45 PM70 °FClear.5 mph69%29.98 "Hg10 mi
10:15 PM68 °FClear.No wind73%29.98 "Hg10 mi
9:45 PM68 °FClear.No wind73%29.98 "Hg10 mi
9:15 PM70 °FClear.No wind73%29.98 "Hg10 mi
8:45 PM70 °FClear.No wind73%29.98 "Hg10 mi
8:15 PM73 °FSunny.2 mph65%29.98 "Hg10 mi
7:45 PM77 °FSunny.No wind54%29.98 "Hg10 mi
7:15 PM81 °FSunny.1 mph42%29.95 "Hg10 mi
6:45 PM84 °FSunny.6 mph37%29.95 "Hg10 mi
6:15 PM84 °FSunny.8 mph35%29.95 "Hg10 mi
5:45 PM86 °FSunny.3 mph35%29.98 "Hg10 mi
5:15 PM86 °FSunny.3 mph38%29.98 "Hg10 mi
4:45 PM86 °FSunny.6 mph33%29.98 "Hg10 mi
4:15 PM86 °FSunny.6 mph35%29.98 "Hg10 mi
3:15 PM86 °FSunny.3 mph33%29.98 "Hg10 mi
2:45 PM86 °FSunny.2 mph35%29.98 "Hg10 mi
2:15 PM86 °FSunny.3 mph35%29.98 "Hg10 mi
1:45 PM84 °FSunny.6 mph37%30.01 "Hg10 mi
1:15 PM84 °FSunny.2 mph35%30.01 "Hg10 mi
12:45 PM84 °FSunny.3 mph43%30.01 "Hg10 mi
12:15 PM82 °FSunny.3 mph48%30.01 "Hg10 mi
11:45 AM82 °FSunny.3 mph51%30.01 "Hg10 mi
11:15 AM79 °FSunny.3 mph58%30.01 "Hg10 mi
10:45 AM79 °FSunny.3 mph58%30.04 "Hg10 mi
10:15 AM77 °FSunny.2 mph61%30.04 "Hg10 mi
9:45 AM73 °FSunny.2 mph65%30.04 "Hg10 mi
9:15 AM72 °FSunny.2 mph69%30.04 "Hg10 mi
Weather by CustomWeather, © 2016

See weather overviewHow to use our weather pages